When you browse on this site, cookies collect data to enhance your experience and personalize the content and advertising you see.
Visit our Privacy Policy to learn more. By continuing to use the site, you agree to this use of cookies and data.
  • In Romania
  • List of Countries
  • For 7 days
  • Water Temperature
  • Weather Map
  • Weather Widgets
  • user-avatar
    Login

    Hourly Weather Oslo

    Today, 28 May, Thursday

    Time Temperature Precipitation Wind Pressure Humidity
    00:00 +8°C° 0 mm 2 mps 764 mmHg 63%
    01:00 +7°C° 0 mm 2 mps 764 mmHg 68%
    02:00 +7°C° 0 mm 2 mps 764 mmHg 70%
    03:00 +7°C° 0 mm 1 mps 764 mmHg 72%
    04:00 +7°C° 0 mm 1 mps 765 mmHg 74%
    05:00 +9°C° 0 mm 1 mps 765 mmHg 68%
    06:00 +10°C° 0 mm 1 mps 765 mmHg 61%
    07:00 +12°C° 0 mm 1 mps 765 mmHg 54%
    08:00 +14°C° 0 mm 1 mps 764 mmHg 49%
    09:00 +15°C° 0 mm 1 mps 764 mmHg 44%
    10:00 +18°C° 0 mm 1 mps 764 mmHg 39%
    11:00 +19°C° 0 mm 1 mps 764 mmHg 36%
    12:00 +20°C° 0 mm 1 mps 764 mmHg 34%
    13:00 +22°C° 0 mm 1 mps 764 mmHg 32%
    14:00 +21°C° 0 mm 1 mps 763 mmHg 31%
    15:00 +21°C° 0 mm 1 mps 763 mmHg 31%
    16:00 +20°C° 0 mm 2 mps 763 mmHg 31%
    17:00 +19°C° 0 mm 2 mps 763 mmHg 35%
    18:00 +18°C° 0 mm 2 mps 763 mmHg 39%
    19:00 +17°C° 0 mm 2 mps 763 mmHg 44%
    20:00 +15°C° 0 mm 2 mps 763 mmHg 53%
    21:00 +12°C° 0 mm 1 mps 763 mmHg 62%
    22:00 +10°C° 0 mm 1 mps 764 mmHg 72%
    23:00 +9°C° 0 mm 1 mps 764 mmHg 74%

    Tomorrow, 29 May, Friday

    Time Temperature Precipitation Wind Pressure Humidity
    00:00 +9°C° 0 mm 1 mps 764 mmHg 77%
    01:00 +7°C° 0 mm 0 mps 764 mmHg 79%
    02:00 +7°C° 0 mm 0 mps 764 mmHg 80%
    03:00 +7°C° 0 mm 0 mps 764 mmHg 80%
    04:00 +7°C° 0 mm 0 mps 764 mmHg 81%
    05:00 +9°C° 0 mm 1 mps 764 mmHg 73%
    06:00 +11°C° 0 mm 1 mps 764 mmHg 66%
    07:00 +13°C° 0 mm 1 mps 764 mmHg 58%
    08:00 +16°C° 0 mm 1 mps 764 mmHg 52%
    09:00 +17°C° 0 mm 0 mps 764 mmHg 46%
    10:00 +20°C° 0 mm 0 mps 764 mmHg 40%
    11:00 +21°C° 0 mm 0 mps 764 mmHg 37%
    12:00 +22°C° 0 mm 0 mps 763 mmHg 34%
    13:00 +23°C° 0 mm 0 mps 763 mmHg 31%
    14:00 +23°C° 0 mm 0 mps 763 mmHg 31%
    15:00 +22°C° 0 mm 0 mps 763 mmHg 30%
    16:00 +24°C° 0 mm 1 mps 763 mmHg 30%
    17:00 +23°C° 0 mm 1 mps 762 mmHg 35%
    18:00 +22°C° 0 mm 1 mps 762 mmHg 39%
    19:00 +21°C° 0 mm 1 mps 762 mmHg 44%
    20:00 +17°C° 0 mm 0 mps 763 mmHg 50%
    21:00 +15°C° 0 mm 0 mps 763 mmHg 55%
    22:00 +12°C° 0 mm 0 mps 763 mmHg 61%
    23:00 +13°C° 0 mm 1 mps 764 mmHg 62%

    Day after tomorrow, 30 May, Saturday

    Time Temperature Precipitation Wind Pressure Humidity
    00:00 +12°C° 0 mm 1 mps 764 mmHg 63%
    01:00 +12°C° 0 mm 1 mps 764 mmHg 64%
    02:00 +12°C° 0 mm 1 mps 765 mmHg 65%
    03:00 +10°C° 0 mm 2 mps 765 mmHg 67%
    04:00 +10°C° 0 mm 2 mps 765 mmHg 68%
    05:00 +12°C° 0 mm 2 mps 765 mmHg 63%
    06:00 +13°C° 0 mm 2 mps 765 mmHg 59%
    07:00 +15°C° 0 mm 2 mps 766 mmHg 54%
    08:00 +16°C° 0 mm 2 mps 765 mmHg 50%
    09:00 +18°C° 0 mm 2 mps 765 mmHg 45%
    10:00 +19°C° 0 mm 2 mps 765 mmHg 41%
    11:00 +20°C° 0 mm 2 mps 765 mmHg 39%
    12:00 +21°C° 0 mm 2 mps 765 mmHg 37%
    13:00 +23°C° 0 mm 2 mps 765 mmHg 35%
    14:00 +24°C° 0 mm 2 mps 764 mmHg 34%
    15:00 +24°C° 0 mm 2 mps 764 mmHg 34%
    16:00 +24°C° 0 mm 2 mps 764 mmHg 34%
    17:00 +23°C° 0 mm 2 mps 764 mmHg 38%
    18:00 +23°C° 0 mm 2 mps 764 mmHg 42%
    19:00 +21°C° 0 mm 2 mps 764 mmHg 46%
    20:00 +19°C° 0 mm 2 mps 765 mmHg 53%
    21:00 +16°C° 0 mm 1 mps 765 mmHg 60%
    22:00 +14°C° 0 mm 1 mps 766 mmHg 67%
    23:00 +13°C° 0 mm 1 mps 766 mmHg 69%

    31 May, Sunday

    Time Temperature Precipitation Wind Pressure Humidity
    00:00 +13°C° 0 mm 1 mps 766 mmHg 71%
    01:00 +12°C° 0 mm 1 mps 767 mmHg 73%
    02:00 +12°C° 0 mm 1 mps 767 mmHg 75%
    03:00 +11°C° 0 mm 1 mps 767 mmHg 76%
    04:00 +11°C° 0 mm 1 mps 767 mmHg 78%
    05:00 +13°C° 0 mm 1 mps 767 mmHg 71%
    06:00 +15°C° 0 mm 1 mps 767 mmHg 64%
    07:00 +16°C° 0 mm 1 mps 767 mmHg 56%
    08:00 +18°C° 0 mm 2 mps 766 mmHg 50%
    09:00 +19°C° 0 mm 2 mps 766 mmHg 43%
    10:00 +21°C° 0 mm 2 mps 766 mmHg 36%
    11:00 +23°C° 0 mm 2 mps 766 mmHg 34%
    12:00 +24°C° 0 mm 2 mps 765 mmHg 31%
    13:00 +25°C° 0 mm 2 mps 765 mmHg 28%
    14:00 +25°C° 0 mm 2 mps 765 mmHg 28%
    15:00 +25°C° 0 mm 2 mps 764 mmHg 29%
    16:00 +26°C° 0 mm 2 mps 764 mmHg 29%
    17:00 +25°C° 0 mm 1 mps 764 mmHg 34%
    18:00 +24°C° 0 mm 1 mps 764 mmHg 39%
    19:00 +23°C° 0 mm 1 mps 764 mmHg 44%
    20:00 +21°C° 0 mm 1 mps 764 mmHg 50%
    21:00 +19°C° 0 mm 1 mps 764 mmHg 56%
    22:00 +15°C° 0 mm 1 mps 764 mmHg 62%
    23:00 +14°C° 0 mm 0 mps 764 mmHg 64%

    1 June, Monday

    Time Temperature Precipitation Wind Pressure Humidity
    00:00 +13°C° 0 mm 0 mps 764 mmHg 67%
    01:00 +12°C° 0 mm 0 mps 764 mmHg 70%
    02:00 +12°C° 0 mm 0 mps 764 mmHg 72%
    03:00 +12°C° 0 mm 0 mps 764 mmHg 74%
    04:00 +11°C° 0 mm 0 mps 764 mmHg 76%
    05:00 +13°C° 0 mm 0 mps 764 mmHg 69%
    06:00 +15°C° 0 mm 1 mps 764 mmHg 63%
    07:00 +18°C° 0 mm 1 mps 764 mmHg 56%
    08:00 +20°C° 0 mm 1 mps 764 mmHg 51%
    09:00 +21°C° 0 mm 1 mps 764 mmHg 45%
    10:00 +21°C° 0 mm 2 mps 764 mmHg 40%
    11:00 +23°C° 0 mm 2 mps 763 mmHg 37%
    12:00 +24°C° 0 mm 2 mps 763 mmHg 34%
    13:00 +25°C° 0 mm 2 mps 763 mmHg 30%
    14:00 +25°C° 0 mm 2 mps 762 mmHg 30%
    15:00 +25°C° 0 mm 2 mps 762 mmHg 30%
    16:00 +25°C° 0 mm 2 mps 761 mmHg 30%
    17:00 +24°C° 0 mm 2 mps 761 mmHg 35%
    18:00 +23°C° 0 mm 2 mps 761 mmHg 40%
    19:00 +21°C° 0 mm 2 mps 761 mmHg 45%
    20:00 +19°C° 0 mm 1 mps 761 mmHg 50%
    21:00 +16°C° 0 mm 1 mps 761 mmHg 55%
    22:00 +13°C° 0 mm 0 mps 761 mmHg 60%
    23:00 +13°C° 0 mm 0 mps 761 mmHg 61%

    2 June, Tuesday

    Time Temperature Precipitation Wind Pressure Humidity
    00:00 +12°C° 0 mm 0 mps 761 mmHg 62%
    01:00 +12°C° 0 mm 0 mps 761 mmHg 63%
    02:00 +11°C° 0 mm 0 mps 760 mmHg 65%
    03:00 +12°C° 0 mm 1 mps 760 mmHg 67%
    04:00 +12°C° 0 mm 1 mps 760 mmHg 69%
    05:00 +13°C° 0 mm 1 mps 760 mmHg 63%
    06:00 +15°C° 0 mm 1 mps 760 mmHg 57%
    07:00 +17°C° 0 mm 2 mps 760 mmHg 51%
    08:00 +18°C° 0 mm 2 mps 760 mmHg 48%
    09:00 +20°C° 0 mm 3 mps 760 mmHg 44%
    10:00 +22°C° 0 mm 4 mps 759 mmHg 40%
    11:00 +22°C° 0 mm 4 mps 759 mmHg 40%
    12:00 +23°C° 0 mm 4 mps 759 mmHg 40%
    13:00 +23°C° 0 mm 5 mps 758 mmHg 40%
    14:00 +23°C° 0 mm 5 mps 758 mmHg 41%
    15:00 +23°C° 0 mm 5 mps 758 mmHg 41%
    16:00 +23°C° 0 mm 5 mps 757 mmHg 42%
    17:00 +22°C° 0 mm 5 mps 757 mmHg 46%
    18:00 +21°C° 0 mm 4 mps 756 mmHg 49%
    19:00 +20°C° 0 mm 4 mps 756 mmHg 53%
    20:00 +18°C° 0 mm 3 mps 756 mmHg 62%
    21:00 +16°C° 0 mm 3 mps 756 mmHg 71%
    22:00 +14°C° 0 mm 2 mps 756 mmHg 80%
    23:00 +13°C° 0 mm 2 mps 756 mmHg 84%
    Show more